Regional Weather Roundup
Issued by NWS

Home | Current Version | Previous Version | Graphics & Text | Print | Product List | Glossary On
Versions: 1 2 3 4 5 6 7 8 9 10 11 12 13 14 15 16 17 18 19 20 21 22 23 24 25 26 27 28 29 30 31 32 33 34 35 36 37 38 39 40 41 42 43 44 45 46 47 48 49 50
000
ASUS45 KBOI 310510
RWRID

IDAHO REGIONAL WEATHER ROUNDUP
NATIONAL WEATHER SERVICE BOISE ID
1100 PM MDT THU JUL 30 2015

NOTE: "FAIR" INDICATES FEW OR NO CLOUDS BELOW 12000 FEET
WITH NO SIGNIFICANT WEATHER AND/OR OBSTRUCTIONS TO VISIBILITY

IDZ012-014-310600-
SOUTHWEST IDAHO


CITY           SKY/WX    TMP DP  RH WIND       PRES   REMARKS
BOISE          FAIR      78  36  21 SE3       30.12R
CALDWELL       FAIR      70  45  40 E6        30.11R
MOUNTAIN HOME  FAIR      75  26  15 NW6       30.13R
$$

IDZ016-017-310600-
SOUTHCENTRAL IDAHO


CITY           SKY/WX    TMP DP  RH WIND       PRES   REMARKS
BURLEY         FAIR      63  42  46 SW6       30.22R
JEROME         FAIR      68  38  33 SE3       30.22R
TWIN FALLS     FAIR      70  31  23 S12       30.20R
$$

IDZ019>023-310600-
SOUTHEAST IDAHO


CITY           SKY/WX    TMP DP  RH WIND       PRES   REMARKS
IDAHO FALLS    CLEAR     59  46  62 CALM      30.29R
POCATELLO      CLEAR     65  34  31 S5        30.25R
REXBURG        CLEAR     65  43  44 CALM      30.29S
$$

IDZ006-010-011-018-031-032-310600-
CENTRAL IDAHO MOUNTAINS


CITY           SKY/WX    TMP DP  RH WIND       PRES   REMARKS
MCCALL         FAIR      68  43  40 N7        30.28R
HAILEY         CLEAR     61  41  48 NW9       30.33R
STANLEY          N/A     53  29  39 SE3       30.41R
SALMON         FAIR      64  46  52 CALM      30.21R
CHALLIS        FAIR      67  38  34 NW3       30.27R
$$

IDZ002-004-006-007-026-310600-
NORTHERN IDAHO


CITY           SKY/WX    TMP DP  RH WIND       PRES   REMARKS
LEWISTON       FAIR      82  30  15 S7        30.02R
LOWELL           N/A     67  52  58 N5        30.10R
COEUR D`ALENE  FAIR      73  45  35 E6        30.08R
MULLAN PASS    FAIR      67  28  23 NW3       30.36S
$$


USA.gov is the U.S. government's official web portal to all federal, state and local government web resources and services.